Temp
12 12 12 12 12 12 12 12 12 12 11 11 11 11 10 10 10 10 10 9 9 9 9 9 10 9 9 9 9 9 4 4 7 7 7 7 7 6 5 5 4 4 2 1 1
12 12 12 12 12 12 12 12 12 12 11 11 10 10 10 10 10 9 9 9 9 9 9 9 10 10 10 9 9 6 4 7 8 8 7 7 6 5 4 3 3 2 2 1 -0
11 11 11 11 12 12 12 12 11 11 11 11 11 10 10 10 9 10 10 9 9 9 9 9 9 9 9 9 8 7 5 8 8 9 8 7 6 5 3 2 1 1 1 0 -1
11 11 11 11 11 11 12 12 11 11 11 10 10 10 10 10 11 10 9 9 9 9 9 9 9 9 7 7 8 7 8 8 8 9 8 6 5 4 2 2 2 1 0 -1 -2
11 11 11 11 11 11 11 11 12 12 11 10 10 10 10 10 10 10 10 9 9 9 9 8 8 7 7 7 8 7 7 8 8 8 7 6 4 4 3 3 2 1 -0 -2 -3
11 11 11 11 11 11 11 11 12 11 11 10 10 10 10 9 9 9 10 9 9 9 8 8 7 7 7 7 7 8 7 7 8 8 7 5 3 3 3 2 1 0 -1 -2 -3
11 11 11 11 11 11 11 11 11 11 10 10 10 9 10 9 9 10 10 9 9 9 8 8 8 8 8 7 8 8 7 6 7 6 6 4 2 1 2 2 0 -0 -2 -2 -3
10 11 11 11 11 11 11 11 11 11 10 10 10 9 10 9 9 9 9 9 9 9 9 8 8 8 7 7 7 6 3 3 5 7 6 6 3 2 2 1 -0 -1 -2 -3 -3
10 10 11 10 11 11 11 11 11 10 10 9 9 9 9 9 9 9 9 9 9 9 9 8 8 7 7 4 3 1 2 3 4 7 6 5 2 2 2 1 -1 -2 -3 -3 -4
9 10 10 10 10 10 10 11 11 10 10 9 9 8 8 8 8 9 8 9 9 9 9 8 7 3 1 2 1 3 2 2 3 5 6 2 2 2 2 1 -1 -2 -3 -4 -4
9 9 9 9 10 10 10 11 11 10 9 9 8 8 8 8 8 7 8 8 8 8 7 7 3 1 3 3 5 4 2 2 3 4 4 1 1 3 2 1 -1 -1 -3 -4 -5
9 9 9 9 8 9 9 10 9 7 6 7 7 7 7 7 7 7 8 8 7 7 6 5 4 5 4 4 4 3 3 3 2 4 4 1 0 -1 2 0 -0 -1 -3 -5 -5
9 9 8 8 8 8 8 9 8 6 4 6 6 6 7 6 6 5 6 6 6 6 5 4 5 5 5 4 3 3 3 2 2 3 4 2 -1 -3 0 0 -0 -2 -3 -5 -5
9 9 8 8 8 7 8 8 7 5 5 7 6 6 6 6 5 5 5 6 6 5 5 5 5 4 4 4 2 2 3 3 2 2 -0 4 -1 -2 -1 -1 -1 -2 -4 -5 -5
8 8 8 8 7 7 7 6 6 5 9 7 6 6 6 6 5 5 5 5 4 5 5 5 4 3 4 4 3 3 3 1 3 2 2 1 -2 -3 -2 -2 -2 -3 -4 -5 -6
9 8 8 8 7 7 7 6 5 6 9 6 6 6 6 6 5 5 5 5 4 4 5 5 5 4 4 3 4 3 1 1 2 -0 -3 -2 -1 -3 -5 -5 -4 -4 -5 -6 -6
8 8 8 7 7 7 6 5 6 8 8 7 6 5 5 5 5 4 -0 -0 1 3 1 4 4 4 3 3 2 1 -3 -6 -3 -5 -3 -2 -0 -4 -4 -4 -7 -6 -6 -6 -6
8 8 8 7 6 5 5 5 7 8 7 4 5 5 5 4 4 4 2 1 -0 -1 -2 3 4 3 3 3 1 1 -2 -6 0 -4 -2 2 -2 -2 -2 -2 -3 -5 -6 -6 -6
8 8 7 6 5 5 5 6 7 7 6 4 4 2 4 4 2 3 2 -0 -1 -2 1 -0 4 3 3 2 2 1 -3 -2 -7 -6 -2 -1 -1 -1 -1 -3 -4 -5 -6 -7 -7
7 6 5 4 4 4 3 6 5 3 2 2 5 4 6 4 3 2 2 -0 -1 -0 -1 -2 0 3 3 3 1 0 0 -4 -7 -6 -6 -2 -4 -3 -5 -5 -5 -6 -7 -7 -7
6 4 3 3 2 3 4 5 2 -0 1 1 3 3 4 3 3 3 2 0 -0 -1 -1 -3 -3 1 2 -1 -1 -2 -6 -3 -4 -5 -8 -5 -3 -8 -8 -8 -10 -8 -7 -7 -7
4 2 1 1 2 2 3 3 0 -1 -1 -0 -0 3 4 3 2 1 2 1 0 -0 -2 -2 -5 -3 -1 -1 -0 -0 -1 -4 -6 -6 -9 -7 -3 -5 -8 -6 -6 -7 -6 -5 -6
4 0 0 1 3 2 -1 -1 -1 -1 -1 -1 -0 2 3 3 2 2 -0 -0 -0 -0 -3 -2 -4 -4 -1 -2 -2 -1 -1 -4 -8 -11 -10 -7 -3 -4 -5 -6 -5 -6 -6 -5 -6
5 0 -1 -0 -0 2 0 0 -0 -2 -1 -2 1 2 2 2 2 0 -1 -1 -1 -1 0 -1 -6 -3 1 -2 -6 -5 -6 -3 -6 -8 -10 -7 -5 -3 -5 -8 -6 -6 -5 -6 -6
5 2 3 -0 -0 0 1 1 -0 -1 -2 -2 -1 1 1 -1 -1 -0 -1 -2 -1 -0 -2 -4 -2 -6 -2 -1 -2 -3 -7 -9 -8 -6 -6 -7 -8 -6 -8 -10 -6 -6 -6 -6 -6
5 2 1 2 1 1 2 1 1 -1 -2 -2 -1 0 0 -0 1 -0 -2 -2 -1 -3 -5 -5 -2 -4 -4 -2 -2 -2 -2 -4 -6 -4 -5 -7 -5 -6 -4 -5 -6 -6 -6 -7 -7
3 3 3 1 0 2 2 2 1 -1 -2 -1 -1 -1 -1 1 -1 -2 -1 -1 -2 -4 -5 -5 -4 -5 -3 -4 -7 -3 -7 -5 -6 -8 -6 -5 -4 -4 -6 -6 -6 -6 -7 -7 -7
Height
1535 1534 1531 1527 1525 1523 1520 1518 1517 1515 1513 1512 1511 1510 1509 1507 1508 1506 1504 1505 1502 1502 1500 1498 1496 1495 1496 1495 1495 1495 1506 1515 1507 1506 1505 1504 1503 1502 1501 1500 1498 1498 1495 1485 1476
1534 1532 1531 1529 1526 1522 1520 1518 1516 1514 1512 1511 1510 1509 1507 1507 1507 1507 1506 1504 1503 1501 1499 1496 1494 1495 1495 1496 1496 1496 1508 1503 1502 1502 1503 1501 1500 1499 1500 1498 1497 1495 1490 1481 1472
1532 1530 1528 1529 1527 1524 1519 1518 1516 1513 1511 1510 1508 1508 1507 1507 1507 1507 1505 1504 1503 1501 1498 1496 1495 1495 1495 1495 1497 1497 1503 1500 1500 1499 1499 1498 1498 1498 1498 1497 1494 1484 1477 1476 1469
1533 1530 1527 1526 1525 1523 1520 1517 1515 1512 1510 1509 1507 1506 1506 1506 1508 1505 1504 1503 1503 1501 1498 1496 1494 1495 1496 1497 1497 1498 1497 1498 1498 1498 1497 1497 1497 1498 1500 1499 1492 1487 1478 1472 1466
1531 1530 1528 1525 1523 1521 1519 1516 1514 1511 1509 1508 1506 1504 1504 1506 1506 1504 1502 1502 1502 1501 1497 1495 1495 1497 1498 1497 1496 1497 1496 1496 1495 1496 1495 1496 1498 1499 1499 1495 1489 1484 1476 1467 1460
1530 1529 1528 1527 1522 1519 1519 1516 1512 1509 1508 1506 1505 1504 1504 1505 1504 1503 1501 1501 1500 1500 1499 1497 1497 1497 1497 1497 1497 1494 1494 1494 1491 1492 1494 1495 1499 1498 1497 1492 1486 1480 1471 1463 1456
1530 1528 1526 1524 1523 1520 1516 1515 1512 1508 1507 1505 1504 1504 1502 1503 1502 1501 1500 1500 1499 1500 1501 1499 1497 1498 1495 1494 1493 1493 1494 1491 1490 1492 1493 1494 1500 1500 1496 1491 1485 1478 1471 1461 1453
1527 1526 1524 1523 1522 1519 1518 1512 1512 1508 1505 1505 1503 1504 1500 1500 1499 1500 1499 1499 1499 1498 1500 1499 1498 1497 1496 1493 1492 1493 1499 1504 1493 1492 1492 1493 1496 1497 1493 1488 1483 1476 1467 1457 1448
1524 1523 1522 1521 1519 1517 1515 1514 1511 1508 1505 1504 1504 1502 1502 1500 1499 1499 1498 1497 1497 1497 1499 1499 1498 1497 1495 1498 1503 1507 1510 1506 1498 1491 1491 1493 1497 1495 1493 1488 1481 1475 1466 1455 1443
1523 1521 1521 1519 1517 1516 1513 1512 1510 1508 1505 1505 1504 1504 1502 1501 1499 1498 1496 1495 1496 1495 1497 1498 1497 1501 1504 1505 1520 1507 1509 1505 1502 1494 1490 1496 1497 1494 1492 1487 1483 1475 1467 1455 1443
1520 1520 1518 1518 1516 1514 1513 1512 1511 1509 1505 1504 1501 1499 1499 1498 1498 1498 1494 1493 1495 1496 1498 1497 1504 1513 1505 1503 1500 1501 1505 1504 1497 1492 1492 1495 1497 1492 1490 1487 1483 1476 1466 1456 1445
1517 1516 1516 1515 1514 1512 1511 1509 1507 1509 1504 1500 1496 1495 1495 1498 1497 1498 1494 1493 1494 1497 1497 1502 1504 1501 1501 1500 1500 1499 1500 1500 1496 1491 1490 1495 1497 1494 1491 1489 1485 1477 1468 1456 1440
1513 1513 1513 1512 1511 1510 1510 1508 1506 1505 1506 1497 1496 1495 1497 1497 1496 1495 1494 1492 1494 1497 1500 1502 1500 1499 1498 1500 1500 1499 1498 1502 1505 1493 1486 1492 1500 1502 1490 1488 1486 1480 1473 1460 1447
1511 1510 1511 1511 1510 1507 1507 1506 1505 1505 1505 1497 1496 1496 1496 1495 1496 1495 1494 1494 1495 1499 1501 1501 1500 1499 1500 1500 1501 1502 1495 1498 1498 1498 1509 1487 1512 1503 1493 1489 1484 1477 1468 1458 1446
1507 1507 1508 1507 1505 1505 1507 1505 1505 1506 1498 1499 1497 1496 1496 1497 1497 1496 1494 1494 1497 1498 1503 1501 1500 1501 1501 1499 1498 1499 1495 1495 1493 1495 1497 1498 1512 1509 1497 1489 1485 1480 1470 1460 1449
1503 1504 1504 1504 1502 1503 1504 1505 1506 1508 1494 1498 1497 1496 1496 1497 1497 1496 1495 1496 1497 1497 1500 1500 1500 1501 1501 1498 1496 1496 1494 1495 1494 1502 1527 1513 1509 1514 1514 1506 1493 1484 1474 1465 1451
1499 1500 1501 1499 1500 1500 1502 1505 1508 1501 1495 1498 1498 1498 1497 1497 1497 1497 1501 1505 1505 1507 1510 1503 1502 1503 1502 1500 1497 1498 1511 1543 1532 1540 1531 1507 1504 1518 1507 1504 1500 1492 1479 1469 1460
1493 1495 1496 1497 1496 1497 1502 1505 1502 1491 1494 1500 1500 1498 1497 1499 1500 1499 1503 1507 1510 1510 1519 1508 1505 1507 1506 1506 1509 1508 1518 1544 1527 1551 1526 1495 1520 1509 1503 1503 1499 1492 1484 1472 1460
1486 1489 1491 1491 1493 1496 1501 1502 1494 1491 1495 1499 1501 1505 1500 1500 1503 1501 1504 1510 1509 1511 1511 1518 1506 1507 1507 1507 1507 1511 1528 1521 1547 1545 1529 1511 1507 1505 1504 1501 1497 1488 1478 1470 1463
1483 1484 1486 1488 1491 1495 1499 1494 1493 1496 1498 1500 1496 1500 1493 1499 1501 1502 1503 1509 1510 1510 1510 1516 1518 1506 1507 1507 1510 1513 1517 1536 1544 1562 1563 1522 1524 1517 1511 1505 1498 1491 1482 1473 1464
1481 1482 1486 1488 1491 1494 1493 1491 1493 1496 1497 1500 1497 1498 1498 1499 1499 1500 1505 1509 1508 1510 1510 1515 1518 1516 1510 1520 1520 1522 1536 1529 1533 1544 1572 1550 1521 1519 1518 1510 1507 1498 1489 1479 1470
1479 1485 1487 1487 1493 1489 1490 1489 1492 1495 1497 1498 1498 1496 1495 1496 1500 1503 1502 1506 1508 1510 1514 1513 1521 1528 1524 1521 1520 1520 1522 1532 1549 1552 1560 1553 1524 1510 1511 1506 1505 1498 1492 1483 1476
1476 1480 1485 1487 1486 1487 1491 1492 1491 1494 1494 1497 1497 1496 1495 1496 1501 1500 1506 1509 1509 1509 1514 1513 1521 1538 1526 1529 1521 1521 1522 1530 1543 1556 1565 1557 1522 1509 1510 1505 1503 1501 1493 1485 1478
1471 1479 1485 1485 1483 1481 1487 1487 1490 1491 1493 1494 1495 1495 1495 1496 1498 1504 1507 1509 1509 1509 1510 1512 1524 1520 1517 1524 1529 1535 1534 1526 1535 1552 1560 1540 1522 1509 1511 1508 1500 1499 1494 1488 1482
1461 1466 1468 1478 1477 1475 1477 1478 1485 1489 1492 1494 1496 1492 1492 1502 1503 1502 1506 1509 1509 1510 1511 1513 1516 1526 1519 1516 1520 1523 1533 1537 1541 1534 1537 1530 1530 1511 1513 1509 1503 1500 1496 1489 1483
1458 1456 1464 1464 1464 1469 1473 1475 1474 1482 1485 1490 1489 1487 1490 1494 1492 1497 1501 1505 1503 1511 1514 1514 1514 1520 1525 1517 1519 1520 1518 1523 1529 1523 1526 1525 1517 1506 1507 1507 1504 1502 1497 1492 1486
1456 1457 1457 1459 1463 1464 1462 1463 1466 1472 1481 1481 1484 1487 1490 1490 1492 1494 1496 1497 1500 1505 1512 1515 1518 1525 1527 1524 1532 1522 1519 1518 1519 1522 1517 1518 1507 1504 1506 1506 1504 1500 1498 1496 1489
Wind_Speed
9 10 11 10 11 11 11 10 8 8 8 7 9 4 10 6 5 8 14 12 10 6 5 8 5 5 4 4 6 2 4 2 3 2 3 4 0 2 1 4 8 8 22 30 40
10 10 12 12 11 11 11 10 9 9 8 6 6 4 8 3 6 7 15 8 6 7 5 11 9 6 2 2 3 5 3 4 4 3 4 4 2 2 1 5 4 25 29 34 36
9 8 10 12 14 13 12 12 10 8 8 6 5 3 4 4 3 5 13 6 2 5 8 7 7 1 2 3 3 2 3 3 4 5 5 3 1 2 3 3 15 31 37 32 36
11 11 10 10 12 13 14 13 11 8 7 6 5 4 4 5 1 11 11 5 2 4 8 5 5 2 3 2 2 1 3 2 3 6 4 3 4 3 7 9 26 26 29 34 31
11 12 13 11 12 13 14 13 13 9 7 5 5 3 1 2 3 12 9 5 1 5 11 7 10 3 2 3 4 3 1 5 7 8 4 6 2 2 9 27 28 28 30 35 33
13 13 13 15 13 12 15 15 11 8 7 5 5 4 2 1 4 13 8 3 1 4 8 11 6 4 2 2 2 4 6 11 10 5 5 4 5 3 16 28 28 29 33 36 33
13 12 12 13 15 15 13 14 11 8 7 4 5 4 3 4 5 13 7 3 2 2 5 7 6 5 6 3 3 3 4 7 5 9 3 10 3 3 16 22 26 29 31 33 34
13 13 13 13 13 15 17 12 12 8 5 3 3 3 2 5 6 8 6 1 2 1 0 4 7 6 5 8 3 3 5 4 5 3 2 4 2 5 15 22 27 28 33 35 41
12 12 12 13 12 14 14 14 13 9 3 2 2 2 3 4 6 8 8 2 2 2 2 4 4 2 7 3 4 7 3 2 6 2 1 1 2 5 12 24 28 31 35 36 42
15 13 15 15 17 15 13 12 13 6 1 2 4 2 3 4 10 7 9 2 0 3 1 2 3 3 4 5 1 3 3 4 6 4 3 4 3 6 9 20 24 28 36 37 41
16 15 14 17 19 17 14 10 4 5 4 5 4 4 10 11 9 6 7 3 2 1 1 2 6 1 4 2 1 3 4 6 4 5 5 3 3 4 9 15 23 28 35 38 39
18 16 15 17 17 14 12 6 6 3 8 9 8 5 7 6 3 6 4 3 1 2 1 4 1 3 5 2 2 0 1 3 7 5 4 6 3 4 8 11 25 30 35 39 46
18 16 15 17 17 15 11 8 6 6 4 4 6 5 5 3 3 8 6 3 3 2 2 4 2 3 1 2 5 1 3 2 5 7 1 5 4 4 10 9 26 30 31 35 39
18 17 17 16 14 12 12 10 7 3 2 2 1 1 1 1 2 6 5 2 3 3 2 2 1 3 1 1 2 3 3 6 7 1 1 2 4 3 14 13 21 32 38 40 43
18 16 19 15 8 11 10 6 6 3 4 3 1 1 2 1 1 1 7 2 3 2 3 1 3 4 3 3 2 6 11 5 3 3 2 4 2 5 8 19 24 30 38 41 44
20 19 20 21 13 13 9 3 3 2 5 1 1 1 1 1 1 2 2 4 3 3 2 2 3 3 3 4 2 9 4 5 3 2 3 4 4 4 6 11 20 29 37 38 44
19 23 22 20 9 7 5 6 2 3 1 1 1 1 2 2 2 4 4 5 2 3 1 4 2 1 3 3 5 8 5 3 5 5 4 4 3 6 6 7 7 19 33 35 37
22 23 25 21 13 7 11 2 4 1 2 2 3 4 1 3 1 2 1 3 3 3 3 2 2 5 6 2 2 4 3 5 4 2 5 4 2 4 5 12 20 23 26 32 38
22 26 25 19 13 14 8 1 4 3 3 5 3 1 2 2 1 2 2 3 1 1 4 3 1 0 2 3 2 4 5 2 5 1 2 3 3 2 8 12 21 28 34 36 38
26 25 13 14 14 17 2 5 3 2 5 3 7 3 2 3 2 2 0 1 2 1 2 2 3 2 2 1 8 6 2 4 3 4 5 4 4 4 11 13 15 22 30 37 41
24 4 8 15 16 7 3 5 3 3 4 4 4 4 4 3 3 3 2 1 2 1 3 3 3 3 2 5 1 4 4 4 3 3 4 3 5 5 4 7 8 19 31 36 39
14 3 15 21 4 3 2 3 4 5 3 1 1 1 6 4 2 2 4 1 3 3 2 1 3 3 1 3 2 2 2 3 4 6 1 3 5 1 4 10 13 21 30 35 36
7 6 20 22 3 3 1 1 3 4 4 4 4 3 2 4 1 2 3 2 4 2 3 3 1 2 5 4 4 1 2 4 4 3 3 4 5 4 1 10 16 17 28 33 36
11 3 3 12 5 3 5 4 5 3 4 5 4 3 2 2 1 4 3 1 3 2 5 2 2 4 4 5 4 1 2 3 4 3 3 5 6 5 7 7 18 20 26 30 32
14 6 10 5 7 4 6 8 6 6 3 7 2 5 6 3 2 4 3 2 2 4 2 3 2 2 2 1 3 4 4 4 5 4 5 4 5 8 5 4 12 15 23 29 32
5 4 8 6 5 14 9 8 11 5 8 5 5 10 5 5 5 8 6 4 4 3 2 2 3 2 4 3 2 4 6 7 3 3 8 4 9 5 2 3 7 15 21 25 28
10 7 6 6 3 7 6 8 11 13 7 1 9 6 4 2 5 7 8 9 7 6 3 3 3 2 3 3 4 5 7 9 4 4 6 4 6 2 0 5 6 15 18 20 24
Wind_Direction
343 348 348 356 359 2 360 355 348 346 343 342 341 339 338 309 308 348 5 358 12 31 19 350 9 354 307 19 40 44 65 133 175 195 257 315 89 304 194 331 322 302 310 307 320
336 340 340 342 349 354 353 351 342 339 338 337 345 348 360 7 311 333 351 350 12 9 347 9 23 8 92 63 40 68 95 184 195 191 211 249 200 218 265 326 303 316 321 323 325
324 329 338 337 341 343 346 344 335 334 329 319 332 322 338 340 326 330 345 344 13 357 355 355 350 346 76 89 28 109 153 206 203 228 228 248 212 117 346 325 332 324 325 323 320
326 324 329 334 335 339 340 334 331 327 327 304 314 293 301 316 232 349 346 341 298 329 7 4 25 70 72 35 13 54 212 232 248 286 259 197 140 112 67 308 328 326 329 331 322
327 326 327 329 331 334 333 333 331 322 323 306 307 287 306 302 277 347 346 330 270 349 21 43 55 43 111 315 339 177 268 295 275 296 178 137 77 67 342 342 339 332 329 333 328
329 326 328 327 328 333 333 331 330 326 313 297 298 254 260 248 286 343 336 332 43 16 41 65 46 2 264 267 176 205 242 289 285 242 170 133 58 32 335 344 340 333 335 333 331
320 323 325 327 329 330 336 332 327 329 305 282 295 247 254 244 305 352 335 311 41 64 67 58 29 12 313 270 331 273 318 346 349 176 151 128 85 334 345 349 343 341 334 333 336
315 315 321 325 333 335 334 339 323 329 312 271 287 247 254 253 296 323 335 325 350 139 84 20 354 332 325 306 43 72 59 10 300 161 221 173 247 272 352 353 349 341 341 338 343
305 311 312 317 327 338 349 338 319 318 294 274 233 254 270 267 293 314 344 330 154 167 264 322 336 14 21 40 33 7 291 280 308 349 179 48 276 276 346 358 349 345 343 340 342
294 302 309 315 319 330 336 332 319 315 314 268 244 291 264 302 303 301 333 251 286 316 173 136 56 56 24 24 241 281 314 280 258 292 291 111 277 261 335 4 348 341 345 342 342
285 295 303 311 310 310 321 315 298 289 314 256 236 247 292 296 289 298 326 220 281 293 221 61 66 311 287 260 170 211 213 271 269 263 13 136 195 286 321 360 354 345 346 343 343
280 287 300 308 301 309 311 287 275 257 300 250 255 249 266 283 304 310 345 131 135 180 14 36 136 251 265 105 29 351 229 279 300 286 306 205 229 270 344 353 356 350 347 342 343
273 284 291 301 304 296 295 293 294 318 267 286 229 244 244 248 231 343 16 89 76 78 343 164 164 309 45 23 11 297 175 195 243 308 338 124 321 342 327 346 352 354 346 346 345
269 282 290 293 289 275 276 290 299 297 280 183 242 281 265 186 274 17 16 80 53 148 175 112 7 48 16 10 74 318 172 310 282 296 235 157 278 0 339 338 354 348 349 347 348
269 287 279 283 268 267 284 296 317 348 294 92 190 197 74 188 347 332 28 85 122 116 104 196 18 31 18 332 5 253 317 277 213 211 32 339 58 288 350 349 343 344 343 346 347
267 279 274 277 272 280 271 254 126 49 251 69 89 30 342 4 319 330 50 71 94 77 336 121 87 73 276 310 325 314 0 33 50 80 40 266 120 327 338 322 331 337 340 343 348
267 273 272 257 269 243 200 149 39 211 156 357 291 215 180 344 343 28 37 16 67 79 338 7 35 350 2 355 6 12 43 353 355 8 218 297 55 236 292 322 297 321 331 342 355
269 271 266 253 237 177 154 101 199 252 184 50 0 354 258 34 7 7 77 60 51 67 92 150 322 8 336 79 235 5 96 128 241 319 292 345 309 276 223 348 341 341 340 352 359
266 260 249 235 199 168 150 174 220 218 116 149 116 59 264 153 173 30 51 156 98 97 143 120 118 119 57 39 85 328 37 172 99 196 356 288 302 44 311 345 352 347 352 356 360
258 233 230 213 176 166 130 227 225 118 118 86 204 224 257 188 160 123 151 64 125 98 141 169 71 24 105 18 41 87 143 27 8 36 329 305 291 250 336 329 340 345 347 352 1
238 162 188 166 161 160 194 213 150 143 146 178 199 176 258 199 197 177 164 150 143 144 97 139 100 284 20 14 28 359 14 37 109 112 156 295 278 202 247 288 311 322 349 357 3
204 135 174 162 148 196 202 190 128 154 145 132 181 249 189 186 145 167 186 133 161 156 104 110 143 98 141 314 320 93 109 120 115 278 140 161 280 144 207 291 323 331 355 1 9
192 120 170 183 180 201 94 116 163 148 185 172 197 245 261 201 147 142 116 116 125 91 167 189 19 52 356 350 10 235 169 123 117 85 216 127 271 173 87 325 358 352 358 1 8
178 125 154 205 236 178 166 196 175 181 157 154 197 171 135 173 27 166 138 154 130 111 114 124 104 151 188 202 128 141 281 132 124 115 196 227 289 278 348 337 345 355 360 2 9
190 183 181 184 233 203 187 149 146 184 210 166 248 228 171 156 79 170 135 119 77 158 79 112 132 128 273 157 164 189 187 184 165 191 170 259 221 280 271 272 329 350 3 2 6
206 148 178 192 169 176 190 205 174 152 160 203 232 189 192 161 182 193 134 193 189 80 93 352 116 109 6 95 30 266 210 200 224 244 258 251 278 210 222 25 350 8 6 2 3
224 207 165 156 162 173 200 181 188 135 200 196 186 152 187 210 109 98 126 111 131 141 134 116 124 87 281 32 346 318 220 183 191 219 167 201 229 211 244 78 21 5 7 3 360